Probability
0 0 0 0 0 0 0 0 0 0 0 0 0 0 0 0 0 0 0 0 0 0 0 0 0 0 0 0 0 0 0 0 0 0 0 0 0 0
0 0 0 0 0 0 0 0 0 0 0 0 0 0 0 0 0 0 0 0 0 0 0 0 0 0 0 0 0 0 0 0 0 0 0 0 0 0
0 0 0 0 0 0 0 0 0 0 0 0 0 0 0 0 0 0 0 0 0 0 0 0 0 0 0 0 0 0 0 0 0 0 0 0 0 0
0 0 0 0 0 0 0 0 0 0 0 0 0 0 0 0 0 0 0 0 0 0 0 0 0 0 0 0 0 0 0 0 0 0 0 0 0 0
0 0 0 0 0 0 0 0 0 0 0 0 0 0 0 0 0 0 0 0 0 0 0 0 0 0 0 0 0 0 0 0 0 0 0 0 0 0
0 0 0 0 0 0 0 0 0 0 0 0 0 0 0 0 0 0 0 0 0 0 0 0 0 0 0 0 0 0 0 0 0 0 0 0 0 0
0 0 0 0 0 0 0 0 0 0 0 0 0 0 0 0 0 0 0 0 0 0 0 0 0 0 0 0 0 0 0 0 0 0 0 0 0 0
0 0 0 0 0 0 0 0 0 0 0 0 0 0 0 0 0 0 0 0 0 0 0 0 0 0 0 0 0 0 0 0 0 0 0 0 0 0
0 0 0 0 0 0 0 0 0 0 0 0 0 0 0 0 0 0 0 0 0 0 0 0 0 0 0 0 0 0 0 0 0 0 0 0 0 0
0 0 0 0 0 0 0 0 0 0 0 0 0 0 0 0 0 0 0 0 0 0 0 0 0 0 0 0 0 0 0 0 0 0 0 0 0 0
0 0 0 0 0 0 0 0 0 0 0 0 0 0 0 0 0 0 0 0 0 0 0 0 0 0 0 0 0 0 0 0 0 0 0 0 0 0
0 0 0 0 0 0 0 0 0 0 0 0 0 0 0 0 0 0 0 0 0 0 0 0 0 0 0 0 0 0 0 0 0 0 0 0 0 0
0 0 0 0 0 0 0 0 0 0 0 0 0 0 0 0 0 0 0 0 0 0 0 0 0 0 0 0 0 0 0 0 0 0 0 0 0 0
0 0 0 0 0 0 0 0 0 0 0 0 0 0 0 0 0 0 0 0 0 0 0 0 0 0 0 0 0 0 0 0 0 0 0 0 0 0
0 0 0 0 0 0 0 0 0 0 0 0 0 0 0 0 0 0 0 0 0 0 0 0 0 0 0 0 0 0 0 0 0 0 0 0 0 0
0 0 0 0 0 0 0 0 0 0 0 0 0 0 0 0 0 0 0 0 0 0 0 0 0 0 0 0 0 0 0 0 0 0 0 0 0 0
0 0 0 0 0 0 0 0 0 0 0 0 0 0 0 0 0 0 0 0 0 0 0 0 0 0 0 0 0 0 0 0 0 0 0 0 0 0
0 0 0 0 0 0 0 0 0 0 0 0 0 0 0 0 0 0 0 0 0 0 0 0 0 0 0 0 0 0 0 0 0 0 0 0 0 0
0 0 0 0 0 0 0 0 0 0 0 0 0 0 0 0 0 0 0 0 0 0 0 0 0 0 0 0 0 0 0 0 0 0 0 0 0 0
0 0 0 0 0 0 0 0 0 0 0 0 0 0 0 0 0 0 0 0 0 0 0 0 0 0 0 0 0 0 0 0 0 0 0 0 0 0
0 0 0 0 0 0 0 0 0 0 0 0 0 0 0 0 0 0 0 0 0 0 0 0 0 0 0 0 0 0 0 0 0 0 0 0 0 0
0 0 0 0 0 0 0 0 0 0 0 0 0 0 0 0 0 0 0 0 0 0 0 0 0 0 0 0 0 0 0 0 0 0 0 0 0 0
0 0 0 0 0 0 0 0 0 0 0 0 0 0 0 0 0 0 0 0 0 0 0 0 0 0 0 0 0 0 0 0 0 0 0 0 0 0
Wind_Speed
3 3 3 3 3 3 3 3 3 5 5 3 2 3 3 3 5 4 4 8 10 11 11 10 10 11 11 12 12 13 13 13 13 12 13 14 13 13
3 3 3 3 3 3 3 3 3 4 5 3 3 3 3 4 7 5 4 9 10 11 11 11 11 11 11 11 11 13 13 13 13 13 13 13 13 12
3 3 4 3 3 2 3 3 3 3 6 5 3 3 3 4 4 4 4 4 5 10 12 12 11 10 11 11 11 12 13 12 12 13 13 13 13 13
3 3 4 3 3 3 3 3 4 4 5 6 4 3 4 4 4 4 5 5 4 9 11 12 11 10 11 11 11 12 12 12 12 12 12 12 13 13
3 4 4 3 3 3 3 3 3 3 3 4 4 3 3 3 4 4 5 4 5 7 9 10 10 11 10 11 11 11 11 11 11 11 11 11 11 11
3 3 3 3 4 4 3 3 3 3 2 3 4 3 3 3 3 3 4 3 4 5 6 7 9 10 10 11 11 11 10 10 9 8 8 9 10 10
3 3 3 4 5 4 3 3 3 3 3 3 3 3 3 2 3 3 4 4 4 3 4 4 5 4 5 8 10 10 10 9 8 7 7 8 9 9
3 3 3 4 5 6 6 6 5 4 4 3 3 4 5 4 3 3 3 4 4 2 3 5 3 4 4 3 7 9 9 8 7 7 7 7 8 8
2 2 3 3 5 3 5 6 6 6 6 5 5 5 5 4 4 4 4 4 5 4 4 5 4 4 4 5 8 8 7 7 6 6 6 6 6 6
3 3 3 3 3 3 2 3 3 4 5 4 4 4 5 5 4 4 4 4 4 3 2 4 3 4 5 4 7 6 6 6 5 5 5 5 5 5
3 3 3 3 5 5 3 3 4 3 4 5 5 5 6 6 4 2 2 3 4 4 2 2 3 4 3 3 4 5 5 6 5 5 5 5 5 5
3 3 5 5 6 5 2 2 3 3 3 3 4 5 4 4 5 3 3 3 3 3 2 1 2 2 3 2 2 3 3 4 5 6 6 5 4 2
2 3 3 6 6 6 4 2 4 3 2 2 2 2 2 2 2 2 2 3 3 3 2 1 2 2 2 3 3 2 2 2 2 3 4 5 4 2
3 3 3 6 7 6 4 4 4 4 2 1 1 2 2 2 2 3 3 2 2 3 3 2 2 2 2 2 3 3 2 2 2 2 2 3 3 4
2 4 5 6 6 4 4 5 3 1 1 1 2 2 2 2 2 2 2 2 2 3 3 2 2 2 1 2 2 3 2 2 2 1 2 2 1 1
2 3 5 6 4 3 3 2 1 1 1 2 2 2 2 2 2 2 2 2 2 3 3 3 2 1 1 1 1 2 2 2 2 2 2 2 2 1
1 1 1 2 2 2 2 2 1 2 2 2 2 2 2 2 2 2 2 2 2 2 3 3 3 2 1 1 1 2 2 2 2 2 2 2 2 2
2 1 1 2 2 2 2 2 2 2 2 2 2 2 1 2 2 2 2 2 2 2 2 2 2 2 2 2 3 1 2 2 2 2 2 2 2 2
1 1 2 2 2 2 2 2 2 2 2 2 2 1 1 1 1 1 2 2 2 2 2 2 2 1 2 2 4 4 2 2 2 2 2 2 2 2
1 2 2 2 2 2 2 2 2 2 2 2 2 1 1 1 1 1 1 1 2 2 2 2 2 1 1 0 1 3 5 2 1 2 2 2 2 2
2 2 2 2 2 2 2 2 2 2 2 2 2 1 1 1 1 1 1 2 2 1 1 2 2 3 1 1 2 3 4 5 4 2 1 1 2 2
2 2 2 2 2 2 2 2 2 2 2 1 2 1 1 1 1 1 1 1 1 1 1 2 2 2 2 2 2 2 3 4 6 8 6 3 1 1
2 2 2 2 2 2 2 2 2 2 2 1 1 1 1 1 1 1 1 1 0 0 1 1 2 2 2 2 2 2 3 4 3 4 5 7 6 4
Wind_Direction
239 240 242 248 242 242 242 232 245 278 284 268 277 283 293 299 303 302 294 300 302 303 300 297 294 292 294 291 290 291 289 288 286 285 284 280 276 277
243 243 247 248 247 242 242 244 240 250 271 269 269 283 293 304 308 305 295 302 300 301 301 296 294 294 296 289 288 288 287 285 283 283 283 284 278 280
254 250 254 253 248 251 251 249 249 244 264 279 276 279 283 291 301 300 298 291 291 299 301 296 293 294 297 293 288 288 286 284 281 281 282 285 282 280
258 256 258 258 255 252 248 250 251 247 255 275 283 283 281 282 289 294 300 299 291 298 299 299 294 294 294 297 294 288 288 287 283 280 281 284 285 280
261 261 262 256 259 261 257 255 257 264 256 266 281 286 285 289 299 299 297 296 296 301 302 302 299 297 298 299 301 295 295 292 282 277 276 281 285 284
269 263 265 260 257 260 258 253 256 263 267 271 280 288 285 286 289 299 303 297 296 302 301 303 305 303 301 302 305 306 304 297 290 283 281 283 288 288
287 276 271 280 280 275 270 258 252 253 261 268 276 289 289 297 290 291 293 302 297 290 295 301 305 303 303 303 305 308 306 299 292 286 285 288 292 290
290 296 288 281 286 291 288 283 271 257 255 258 269 275 279 284 290 289 295 304 304 296 303 302 302 296 296 296 311 313 307 304 298 295 293 293 294 293
282 287 294 297 297 284 290 296 292 285 272 260 260 267 276 280 282 285 284 284 285 293 298 297 297 293 298 304 309 311 312 312 307 303 299 298 299 299
274 272 276 287 288 287 285 295 287 279 275 271 260 266 270 271 261 268 275 284 288 286 276 285 294 298 302 301 308 312 318 321 315 314 318 320 321 320
293 291 292 283 294 303 292 288 296 296 303 298 293 292 289 287 286 290 293 294 295 293 277 267 289 303 302 298 309 323 324 329 332 334 333 337 341 332
302 297 297 296 302 308 284 267 283 293 309 319 317 320 315 310 308 283 268 281 293 291 278 283 291 320 317 310 320 330 331 333 336 337 337 339 336 321
296 299 298 311 310 313 307 279 284 301 303 303 308 315 322 322 314 303 286 269 273 278 278 283 287 294 278 303 315 320 330 335 336 332 334 343 342 330
291 293 303 318 319 319 312 307 316 322 311 312 309 309 311 310 310 313 310 299 284 274 275 269 268 278 289 299 303 318 332 331 331 331 334 344 346 347
292 307 315 323 322 317 319 329 331 319 304 301 300 299 292 286 299 315 323 326 332 323 315 309 284 282 273 275 292 307 319 328 337 352 2 3 353 345
308 316 322 326 327 325 332 333 323 301 296 286 290 296 305 314 319 316 311 320 341 347 344 344 333 312 300 292 292 308 319 311 344 356 1 6 12 22
315 316 325 333 340 342 343 335 323 318 312 303 300 308 314 317 321 322 321 332 344 338 342 353 2 6 346 319 319 324 332 343 339 351 19 22 20 27
339 312 316 318 316 318 321 319 314 306 299 296 293 289 297 304 316 327 331 337 341 336 338 335 340 352 14 22 8 337 356 352 355 10 24 32 20 21
336 300 294 292 292 294 294 297 298 297 293 289 290 292 292 292 302 318 334 340 338 339 340 337 343 13 31 9 356 11 16 1 14 22 25 34 24 12
314 296 293 291 285 280 280 281 290 297 300 298 292 284 278 282 296 316 326 329 328 339 352 356 358 1 14 307 334 355 8 4 10 21 19 33 32 23
306 297 291 289 284 276 275 279 281 286 288 293 293 295 286 278 292 309 317 330 337 346 357 345 332 346 3 53 52 15 14 22 32 14 346 29 29 35
294 291 291 288 285 279 277 283 282 282 284 289 294 293 290 276 264 284 292 302 324 342 347 347 357 14 35 54 52 23 14 20 29 33 34 41 56 53
289 288 289 290 285 282 275 270 275 275 270 277 282 291 294 299 289 282 280 284 313 15 24 20 17 32 37 46 54 32 22 19 28 37 39 38 52 57